Погода в Лоустофте

Великобритания     52°28′51″N   1°43′22″E
темп.,
°C
ветер,
м/с
пор.,
м/с
влажн.,
%
обл.,
%
осадки,
мм/ч
давл.,
гПа
погр.,
м
11 апреля, вс
вс1101:00+4ссв796721 0.0 1014657
04:00+3с710675 0.0 1014620
07:00+3с69685 0.0 1016627
10:00+6с785936 0.1 10161454
13:00+7с675623 0.1 10181404
16:00+6с786096 0.4 10191370
19:00+5с68675 0.4 1021752
22:00+3сз357193 0.0 1023267
12 апреля, пн
пн1201:00+2зсз4773100 0.0 1024188
04:00+1зсз4679100 0.0 1025232
07:000зсз359522 0.0 1026177
10:00+5сз34685 0.0 1027760
13:00+7с455466 0.4 10281337
16:00+7с56515 0.6 10291349
19:00+5с456518 0.7 1030309
22:00+3сз22705 0.0 1031119
13 апреля, вт
вт1301:00+1з23760 0.0 103251
04:00+1зюз33770 0.0 103359
07:00+1з23775 0.0 103376
10:00+6юз11585 0.0 1034494
13:00+8ююв445498 0.0 10331342
16:00+9ю555767 0.1 10321103
19:00+6ююз467316 0.1 1032161
22:00+5сз227599 0.0 103338
14 апреля, ср
ср1401:00+4сз227439 0.1 103238
04:00+3ссз338636 0.1 103254
07:00+4с35836 0.1 1033135
10:00+7св55695 0.0 1033781
13:00+7св55656 0.0 10341079
16:00+7св55645 0.0 1033956
19:00+5св57705 0.0 1034610
22:00+4св57715 0.0 1035432
15 апреля, чт
чт1501:00+4св46745 0.0 1034364
04:00+4ссв468148 0.1 1034331
07:00+4ссв46765 0.1 1034399
10:00+6св55645 0.1 10351131
13:00+7св55645 0.1 10351177
16:00+7св5566100 0.0 10341009
19:00+6св5773100 0.0 1034541
22:00+6св61080100 0.0 1035536